Sussex, NJ

4:38 PM EDT on August 30, 2016 (GMT -0400)
Sussex

Weather History for KFWN - November, 2013

Change the Weather History Date:

Saturday, November 2, 2013

  Actual Average Record
Temperature  
Mean Temperature 51 °F -  
Max Temperature 64 °F 58 °F 80 °F (1950)
Min Temperature 39 °F 35 °F 20 °F (1968)
Degree Days  
Heating Degree Days 14    
Growing Degree Days 1 (Base 50)    
Moisture  
Dew Point 41 °F    
Average Humidity 78    
Maximum Humidity 100    
Minimum Humidity 46    
Precipitation  
Precipitation 0.01 in - - ()
Sea Level Pressure  
Sea Level Pressure 29.69 in    
Wind  
Wind Speed 1 mph (SW)    
Max Wind Speed 8 mph    
Max Gust Speed 16 mph    
Visibility 10 miles    
Events      
Averages and records for this station are not official NWS values.
T = Trace of Precipitation, MM = Missing Value Source: NWS Daily Summary

Daily Weather History Graph

Daily Weather History Graph

Search for Another Location

Airport or City:

Trip Planner

Search our weather history database for the weather conditions in past years. The results will help you decide how hot, cold, wet, or windy it might be!

Date:

Astronomy

Nov. 02, 2013 Rise Set
Actual Time 7:31 AM EDT 5:52 PM EDT
Civil Twilight 7:02 AM EDT 6:21 PM EDT
Nautical Twilight 6:29 AM EDT 6:53 PM EDT
Astronomical Twilight 5:57 AM EDT 7:25 PM EDT
Moon 6:25 AM EDT (11/2) 5:22 PM EDT (11/2)
Length of Visible Light 11h 18m
Length of Day
10h 21m
Waning Crescent, 1% of the Moon is Illuminated
Nov 2
Waning Crescent
Nov 3
New
Nov 10
First Quarter
Nov 17
Full
Nov 25
Last Quarter

Hourly Weather History & Observations

Time (EDT) Temp. Dew Point Humidity Pressure Visibility Wind Dir Wind Speed Gust Speed Precip Events Conditions
12:53 AM 39.9 °F 39.0 °F 97% 29.69 in 10.0 mi Calm Calm - N/A   Clear
1:53 AM 41.0 °F 39.0 °F 93% 29.68 in 10.0 mi Calm Calm - N/A   Mostly Cloudy
2:53 AM 42.1 °F 42.1 °F 100% 29.68 in 10.0 mi Calm Calm - N/A   Overcast
3:53 AM 43.0 °F 42.1 °F 97% 29.66 in 10.0 mi Calm Calm - N/A   Overcast
4:53 AM 42.1 °F 39.9 °F 92% 29.66 in 10.0 mi Calm Calm - N/A   Partly Cloudy
5:53 AM 42.1 °F 41.0 °F 96% 29.66 in 10.0 mi Calm Calm - N/A   Overcast
6:53 AM 43.0 °F 42.1 °F 97% 29.68 in 10.0 mi Calm Calm - N/A   Overcast
7:53 AM 43.0 °F 42.1 °F 97% 29.69 in 10.0 mi Calm Calm - N/A   Overcast
8:53 AM 45.0 °F 44.1 °F 97% 29.70 in 10.0 mi Calm Calm - N/A   Mostly Cloudy
9:53 AM 48.9 °F 46.0 °F 90% 29.69 in 10.0 mi Calm Calm - N/A   Overcast
10:53 AM 55.0 °F 46.0 °F 72% 29.68 in 10.0 mi Calm Calm - N/A   Overcast
11:53 AM 60.1 °F 44.1 °F 55% 29.67 in 10.0 mi Variable 3.5 mph - N/A   Clear
12:53 PM 63.0 °F 42.1 °F 46% 29.65 in 10.0 mi SW 6.9 mph - N/A   Clear
1:53 PM 62.1 °F 42.1 °F 48% 29.64 in 10.0 mi SW 6.9 mph 16.1 mph N/A   Mostly Cloudy
2:53 PM 63.0 °F 43.0 °F 48% 29.64 in 10.0 mi SW 8.1 mph - N/A   Overcast
3:53 PM 57.0 °F 48.0 °F 72% 29.66 in 10.0 mi WSW 3.5 mph - 0.01 in   Overcast
4:53 PM 57.9 °F 41.0 °F 53% 29.66 in 10.0 mi Variable 3.5 mph - N/A   Mostly Cloudy
5:53 PM 57.0 °F 37.9 °F 49% 29.68 in 10.0 mi SW 4.6 mph - N/A   Clear
6:53 PM 55.0 °F 37.0 °F 51% 29.72 in 10.0 mi SSW 5.8 mph - N/A   Clear
7:53 PM 50.0 °F 39.0 °F 66% 29.75 in 10.0 mi WSW 3.5 mph - N/A   Clear
8:53 PM 44.1 °F 37.9 °F 79% 29.76 in 10.0 mi Calm Calm - N/A   Clear
9:53 PM 42.1 °F 37.9 °F 85% 29.78 in 10.0 mi Calm Calm - N/A   Clear
10:53 PM 39.0 °F 37.0 °F 93% 29.79 in 10.0 mi Calm Calm - N/A   Clear
11:53 PM 39.9 °F 37.9 °F 93% 29.81 in 10.0 mi Calm Calm - N/A   Overcast